#timestamp,LO_Frequency,Hit,StdDev 
1667343615.3,286047000.7,N
1667343635.2,286047000.6,N
1667343655.0,286046999.0,N
1667343655.9,286046999.0,N
1667343675.8,286046998.8,N
1667343695.6,286046998.5,N
1667343715.4,286046998.2,N
1667343735.3,286046998.5,N
1667343755.1,286047000.3,N
1667343775.9,286047000.9,N
1667343795.7,286046998.1,N
1667343815.5,286046996.8,Y
1667343835.4,286046998.6,P
1667343855.2,286046996.9,P
1667343875.0,286046999.6,N
1667343876.0,286046999.6,N
1667343895.8,286046994.9,Y
1667343915.6,286046999.6,P
1667343935.5,286046999.4,N
1667343955.3,286046996.5,P
1667343975.1,286046997.4,N
1667343995.9,286046995.3,Y
1667344015.7,286046998.2,P
1667344035.6,286047000.4,P
1667344055.4,286047000.5,N
1667344075.2,286047000.4,N
1667344095.1,286047001.2,N
1667344096.0,286047001.2,N
1667344115.8,286046998.9,N
1667344135.6,286047000.9,N
1667344155.5,286047001.0,N
1667344175.3,286047000.4,N
1667344195.2,286046999.8,N
1667344215.0,286047000.5,N
1667344215.9,286047000.5,N
1667344235.8,286047000.6,N
1667344255.6,286047000.0,N
1667344275.4,286046999.9,N
1667344295.3,286047000.9,N
1667344315.1,286046998.6,N
1667344335.8,286047001.0,N
1667344355.7,286046998.6,N
1667344375.5,286046998.2,N
1667344395.4,286046998.6,N
1667344415.2,286046996.6,Y
1667344435.0,286046997.9,P
1667344435.9,286046997.9,N
1667344455.8,286046997.1,P
1667344475.6,286046997.8,N
1667344495.4,286046997.2,N
1667344515.3,286046997.1,Y
1667344535.1,286047000.8,P
1667344555.9,286047000.7,N
1667344575.7,286047000.9,N
1667344595.5,286047001.0,N
1667344615.4,286047000.7,N
1667344635.2,286047001.0,N
1667344655.0,286046998.9,N
1667344655.9,286046998.9,N
1667344675.8,286046998.7,N
1667344695.6,286046998.3,N
1667344715.5,286046998.9,N
1667344735.3,286046998.5,N
1667344755.1,286047000.7,N
1667344775.9,286046998.2,N
1667344795.7,286047000.8,N
1667344815.5,286046998.6,N
1667344835.4,286046998.9,N
1667344855.2,286046998.7,N
1667344875.1,286046996.5,Y
1667344876.0,286046996.5,P
1667344895.8,286046998.9,N
1667344915.7,286046999.2,N
1667344935.5,286046998.8,N
1667344955.3,286046998.8,N
1667344975.2,286046998.3,N
1667344995.0,286046999.3,N
1667344995.9,286046999.3,N
1667345015.7,286046997.0,Y
1667345035.6,286046999.0,P
1667345055.4,286046999.0,P
1667345075.3,286046998.4,P
1667345095.1,286046998.9,Y
1667345115.8,286046998.1,P
1667345135.7,286046998.1,P
1667345155.5,286046998.6,P
1667345175.4,286046998.9,Y
1667345195.2,286047002.7,P
1667345215.0,286046999.9,N
1667345215.9,286046999.9,N
1667345235.8,286047000.1,N
1667345255.6,286046999.7,N
1667345275.5,286047002.8,N
1667345295.3,286047001.6,N
1667345315.1,286046999.7,N
1667345335.9,286047002.4,N
1667345355.7,286047004.4,Y
1667345375.5,286046999.8,P
1667345395.4,286046999.9,N
1667345415.2,286047002.2,P
1667345435.1,286047000.4,N
1667345436.0,286047000.4,N
1667345455.8,286047000.2,N
1667345475.6,286047001.8,N
1667345495.5,286047001.9,N
1667345515.3,286047002.7,Y
1667345535.2,286047000.2,P
1667345555.9,286047000.4,N
1667345575.7,286047000.0,N
1667345595.6,286046999.8,N
1667345615.4,286046999.7,N
1667345635.2,286047000.7,N
1667345655.1,286047000.6,N
1667345656.0,286047000.6,N
1667345675.8,286047000.1,N
1667345695.7,286047002.5,Y
1667345715.5,286047002.3,P
1667345735.3,286047002.8,N
1667345755.2,286047002.7,N
1667345775.0,286046999.8,N
1667345775.9,286046999.8,N
1667345795.8,286047002.4,N
1667345815.6,286047004.4,Y
1667345835.4,286047002.7,P
1667345855.3,286046999.7,N
1667345875.1,286047002.4,N
1667345895.9,286047002.5,N
1667345915.7,286047001.8,N
1667345935.5,286047002.4,N
1667345955.4,286047002.0,N
1667345975.2,286047002.1,N
1667345995.0,286047002.1,N
1667345995.9,286047002.1,N
1667346015.8,286047001.8,N
1667346035.6,286047001.6,N
1667346055.5,286047004.3,Y
1667346075.3,286046999.9,P
1667346095.1,286047002.4,N
1667346115.9,286046999.9,N
1667346135.7,286047002.1,N
1667346155.6,286047002.3,N
1667346175.4,286047002.6,N
1667346195.2,286046999.7,N
1667346215.1,286047002.6,N
1667346216.0,286047002.6,N
1667346235.8,286047000.6,N
1667346255.7,286046998.1,N
1667346275.5,286047000.0,N
1667346295.3,286047000.8,N
1667346315.2,286046997.4,N
1667346335.0,286046996.5,N
1667346335.9,286046996.5,N
1667346355.7,286046995.0,N
1667346375.6,286046996.9,N
1667346395.4,286046998.2,N
1667346415.3,286047000.2,N
1667346435.1,286047000.1,N
1667346436.0,286047000.1,N
1667346455.8,286047002.3,N
1667346475.7,286047002.5,N
1667346495.5,286047001.9,N
1667346515.4,286047002.3,N
1667346535.2,286047004.3,N
1667346555.0,286047002.1,N
1667346555.9,286047002.1,N
1667346575.8,286047004.4,N
1667346595.6,286047004.0,N
1667346615.4,286047001.5,N
1667346635.3,286047003.9,N
1667346655.1,286047001.7,N
1667346675.9,286047004.0,N
1667346695.7,286047002.1,N
1667346715.5,286047002.5,N
1667346735.4,286047002.6,N
1667346755.2,286047004.1,N
1667346775.0,286047004.2,N
1667346775.9,286047004.2,N
1667346795.8,286047004.3,N
1667346815.6,286047002.5,N
1667346835.5,286047003.9,N
1667346855.3,286047003.8,N
1667346875.1,286047001.3,N
1667346895.9,286047003.1,N
1667346915.7,286047003.3,N
1667346935.5,286047003.6,N
1667346955.4,286047003.4,N
1667346975.2,286047005.5,Y
1667346995.1,286047002.5,P
1667346996.0,286047002.5,P
1667347015.8,286047001.3,P
1667347035.6,286047000.4,N
1667347055.5,286047001.1,N
1667347075.3,286047000.8,N
1667347095.1,286047000.0,N
1667347115.9,286047002.5,N
1667347135.7,286047000.1,N
1667347155.6,286047000.3,N
1667347175.4,286046999.8,N
1667347195.2,286047000.2,N
